NUSAT-20 (GRACE) (48921 NORAD) Tracking and Keplerian Element Data

This shows tracking and keplerian element data for the satellite.

Feedback or suggestion? Click here.




ElementValue
Catalog48921
NameNUSAT-20 (GRACE)
Epoch Orbit1681
Epoch Day287.53633337
Epoch Year2021
RAAN55.0125
Inclination97.378
Eccentricity0.0015063
Argument of Perigee222.0078
Mean Anonmoly215.864
Mean Motion15.28758665
Decay Rate0.00645285
L11 48921U 21059AU 21287.53633337 .00645285 00000-0 21429-1 0 9993
L22 48921 97.3780 55.0125 0015063 222.0078 215.8640 15.28758665 16819

Live tracking and technical data element details for NUSAT-20 (GRACE) (NORAD 48921). NUSAT-20 (GRACE) can be tracked NOW for your location showing map with azimuth and elevation plus other details from your city location.

Track the satellite on the map from your city or location and see movement details for azimuth, elevation, latitude, longitude, range, height, and movement on the map or in text.







IsCatalogInMostPopularTable: catalog: 48921, numindb: 22
Update: records affected: 1



GetName: 48921 NUSAT-20 (GRACE)

Hit Count: updated at: Tue, 19 Oct 2021 09:33:20 GMT